Weather Roundup
Issued by NWS

Home | Current Version | Previous Version | Graphics & Text | Print | Product List | Glossary Off
Versions: 1 2 3 4 5 6 7 8 9 10 11 12 13 14 15 16 17 18 19 20 21 22 23 24 25 26 27 28 29 30 31 32 33 34 35 36 37 38 39 40 41 42 43 44 45 46 47 48 49 50

500
NZUS93 KARX 220710
HRRWXR

CURRENT HOURLY OBSERVATIONS ACROSS
MUCH OF THE UPPER MISSISSIPPI VALLEY
NATIONAL WEATHER SERVICE LA CROSSE WI
200 AM CDT FRI MAY 22 2015


...SOUTHEAST MINNESOTA...


CITY           SKY/WX    TMP DP  RH WIND       PRES   REMARKS
ROCHESTER      CLEAR     49  33  54 NW8       30.12R
ROCHESTER/MAYO FAIR      54  33  44 W3        30.12R
WINONA         CLEAR     48  41  76 CALM      30.09R
AUSTIN         CLEAR     46  39  76 CALM      30.12R
ALBERT LEA     CLEAR     48  39  71 W3        30.12S
DODGE CENTER   CLEAR     52  34  50 NW3       30.12R
PRESTON        CLEAR     50  33  50 NW7       30.11R
OWATONNA       CLEAR     45  37  76 CALM      30.13R
FARIBAULT      CLEAR     45  39  81 CALM      30.13R
$$

...ELSEWHERE IN MINNESOTA...


CITY           SKY/WX    TMP DP  RH WIND       PRES   REMARKS
MINNEAPOLIS    CLEAR     56  35  45 NW5       30.12R
INTNL FALLS    CLEAR     33  31  92 CALM      30.12R
DULUTH         CLEAR     45  33  63 CALM      30.11S
RED WING       CLEAR     45  39  81 CALM      30.09S
REDWOOD FALLS  CLEAR     52  36  54 NW8       30.14R
MANKATO        CLEAR     52  34  50 W3        30.13S
WORTHINGTON    CLEAR     48  28  46 W5        30.17R
FAIRMONT       CLEAR     50  30  46 NW6       30.13S
$$

...SOUTHWEST WISCONSIN...


CITY           SKY/WX    TMP DP  RH WIND       PRES   REMARKS
LA CROSSE      CLEAR     50  42  74 SE3       30.08R
PRAIRIE DU CHI CLEAR     46  39  79 E3        30.08R
BOSCOBEL       CLEAR     43  39  86 CALM      30.09R
LONE ROCK      CLEAR     47  41  80 W3        30.08R
PLATTEVILLE    CLEAR     50  38  64 N5        30.07R
FORT MC COY    CLEAR     37  36  96 CALM      30.10R
CAMP DOUGLAS   CLEAR     39  39 100 CALM      30.08R
VIROQUA        FAIR      51  37  56 CALM      30.08R
WIS DELLS      CLEAR     47  39  72 CALM      30.08R
$$

...ELSEWHERE IN WISCONSIN...


CITY           SKY/WX    TMP DP  RH WIND       PRES   REMARKS
MILWAUKEE      CLEAR     47  33  58 N8        30.08R
MADISON        CLEAR     48  36  63 E5        30.07R
GREEN BAY      CLEAR     42  34  73 N3        30.10R
EAU CLAIRE     CLEAR     44  38  79 CALM      30.09R
BLACK RVR FLS  FAIR      35  34  97 CALM      30.08R
MEDFORD        CLEAR     38  35  90 CALM      30.09R
WAUSAU         CLEAR     41  35  79 CALM      30.08R
WIS RAPIDS     CLEAR     42  34  73 CALM      30.10R
MARSHFIELD     CLEAR     46  32  58 NE3       30.09R
RICE LAKE      CLEAR     43  39  85 CALM      30.12R
$$

...NORTHEAST IOWA...


CITY           SKY/WX    TMP DP  RH WIND       PRES   REMARKS
DECORAH        CLEAR     52  37  58 NW3       30.09S
MASON CITY     CLEAR     46  37  71 NW7       30.13R
CHARLES CITY   CLEAR     50  37  62 NW5       30.11S
OELWEIN        CLEAR     50  37  62 N7        30.10S
$$

...ELSEWHERE IN IOWA...


CITY           SKY/WX    TMP DP  RH WIND       PRES   REMARKS
DES MOINES     CLEAR     55  41  59 W7        30.15R
IOWA CITY      CLEAR     49  38  65 W6        30.11R
FORT DODGE     CLEAR     45  37  76 W3        30.15R
$$

...NORTHERN ILLINOIS...


CITY           SKY/WX    TMP DP  RH WIND       PRES   REMARKS
CHICAGO-OHARE  PTCLDY    57  41  55 W8        30.02R
CHICAGO-MIDWAY PTCLDY    59  43  55 SW12      30.03S
MOLINE         CLEAR     48  42  80 W3        30.07R
ROCKFORD       CLEAR     52  41  66 W3        30.06R
PEORIA         CLEAR     56  46  69 SW6       30.09R
$$

NOTE: "FAIR" INDICATES FEW OR NO CLOUDS BELOW 12,000 FEET WITH NO
SIGNIFICANT WEATHER AND/OR OBSTRUCTIONS TO VISIBILITY. WIND
SPEEDS ARE IN MILES-PER-HOUR.



USA.gov is the U.S. government's official web portal to all federal, state and local government web resources and services.